Showing default

TIANPING 1B, 43714

Orbit data source: Space-Track

TIANPING 1B, 43714 is a payload satellite owned by Guoxing (CN) in SSO that was launched on Mon, 19 Nov 2018 UTC via a CHANG ZHENG 2D launch vehicle from the Jiuquan Satellite Launch Center, China (JSC). Payload-class satellites include a variety of spacecraft equipped with specific instruments for various scientific and technological missions. These include communications satellites like Starlink; space stations such as the ISS; scientific satellites like the Hubble; Earth observation satellites from companies like Planet Labs, Umbra, and HawkEye 360; GPS; miniature CubeSats for education and research; and military/defense satellites.

Not visible in the next 10 days
Identifier
43714, 2018-094E
Orbit
SSO
Country
Flag of CNCN / PRC
Related business
Manufacturer
DFH Shenzhen
Mission
Operational Commercial Calibration
Bus & Motor
PINA, Unknown motor
Mass
10 kg wet, ~10 kg dry
Launch date (UTC)
2018-11-19 (7 years ago)
Launch vehicle
CHANG ZHENG 2D
Launch site
Jiuquan Satellite Launch Center, China (JSC)
Object type
Payload
Rocket body
Debris
Shape & HBR
Box + 2 Pan, 0.3 m
Radar Cross Section
0.048 m², Medium (>0.1 m² and < 1m²)

Expand to show TLE details & history
Last TLE update: 8 hours ago

TLE from 8 hours ago
0 TIANPING 1B
1 43714U 18094E   25258.95691209  .00251006  25050-4  83421-3 0  9995
2 43714  97.2993 297.9448 0002885  96.9168 263.2433 15.90284340381725
Epoch: 2025-09-15T22:57Z
TLE epoch observation values (Epoch: 2025-09-15T22:57:57.204Z)
Latitude
-0.00008°
Longitude
-41.69766°
Altitude
304.902 km
Speed
7.725 km/s
True Right ascension
19h 51m 46s
True Declination
0° 00' 00"
Sunlit
Object was in full shadow at epoch
Visualization orbit readout
Latitude
Unknown
Longitude
Unknown
Altitude
Unknown
Speed
Unknown
Apparent Right ascension
Unknown
Apparent Declination
Unknown
Sunlit
N/A
Visualization observer readout
Local Sidereal Time
00:07:04
Azimuth
Unknown
Elevation
Unknown
Doppler factor
Unknown
Orbital elements
Apogee altitude
300.281 km
Perigee altitude
296.429 km
Semi-major axis
6,676.492 km
Eccentricity
0.00029
Inclination
97.2993°
RAAN
297.9448°
Arg. of periapsis
96.9168°
True anomaly
263.21047°
Mean anomaly
263.2433°
Eccentric anomaly
263.22689°
Mean motion
3.97851 °/min
Orbital period
90.49 mins
BSTAR
0.00083421
Loading maneuver chart data...
Computing Atmospheric mass density...
Loading historical data...
Loading historical data...
Loading historical data...
Loading historical data...
Loading historical data...
Loading historical data...
Loading historical data...

Documentation

Showing up to 5 results
|